{"data":{"norad_id":65843,"epoch":"2026-09-20T05:23:50.942688Z","epoch_age_seconds":129875,"freshness":"FRESH","line1":"1 65843U 25221W   26263.22489517  .00015913  00000+0  48118-3 0  9998","line2":"2 65843  53.1565 260.7732 0001261 100.8977 259.2168 15.34394552 54577","mean_motion":15.34394552,"eccentricity":0.0001261,"inclination_deg":53.1565,"raan_deg":260.7732,"arg_perigee_deg":100.8977,"mean_anomaly_deg":259.2168,"bstar":0.00048118,"rev_number":5457,"period_min":93.848091295882,"perigee_km":461.85680086295,"apogee_km":463.58206485531,"semimajor_km":6840.8564328591,"source":"CELESTRAK","updated_at":"2026-09-21T09:00:35.723093Z"}}